This is the latest recevied weather packets stored in our database for station/object K0APR. If no packets are shown the sender has not sent any weather packets the latest 10 day(s).
| Time | Temp. | Humidity | Pressure | Rain* | Wind** | Luminosity | Snow |
|---|---|---|---|---|---|---|---|
| 1777670558 | 10° C | 43% | 1019.3 hPa | 0 mm | - | 551 W/m² | - |
| 1777670256 | 10° C | 43% | 1019.3 hPa | 0 mm | - | 125 W/m² | - |
| 1777669952 | 10° C | 45% | 1019.6 hPa | 0 mm | - | 111 W/m² | - |
| 1777669650 | 10° C | 45% | 1019.3 hPa | 0 mm | - | 127 W/m² | - |
| 1777669043 | 10° C | 45% | 1019.6 hPa | 0 mm | - | 140 W/m² | - |
| 1777668740 | 10.56° C | 44% | 1019.3 hPa | 0 mm | - | 152 W/m² | - |
| 1777668437 | 11.11° C | 45% | 1019.6 hPa | 0 mm | - | 164 W/m² | - |
| 1777667829 | 10.56° C | 46% | 1019.6 hPa | 0 mm | - | 167 W/m² | - |
| 1777667527 | 10.56° C | 45% | 1019.6 hPa | 0 mm | - | 293 W/m² | - |
| 1777667224 | 10.56° C | 45% | 1019.6 hPa | 0 mm | - | 536 W/m² | - |
| 1777666921 | 10° C | 46% | 1019.6 hPa | 0 mm | - | 208 W/m² | - |
| 1777666618 | 10° C | 45% | 1019.6 hPa | 0 mm | - | 613 W/m² | - |
| 1777666011 | 9.44° C | 48% | 1019.6 hPa | 0 mm | - | 88 W/m² | - |
| 1777665406 | 9.44° C | 46% | 1019.6 hPa | 0 mm | - | 752 W/m² | - |
| 1777664191 | 9.44° C | 49% | 1019.6 hPa | 0 mm | - | 185 W/m² | - |
| 1777663889 | 8.89° C | 50% | 1020 hPa | 0 mm | - | 731 W/m² | - |
| 1777663586 | 9.44° C | 49% | 1019.6 hPa | 0 mm | - | 788 W/m² | - |
| 1777663283 | 9.44° C | 49% | 1020 hPa | 0 mm | - | 205 W/m² | - |
| 1777662980 | 10° C | 47% | 1020 hPa | 0 mm | - | 234 W/m² | - |
| 1777662374 | 9.44° C | 50% | 1019.6 hPa | 0 mm | - | 668 W/m² | - |
| 1777662069 | 9.44° C | 49% | 1020 hPa | 0 mm | - | 199 W/m² | - |
| 1777661157 | 8.89° C | 51% | 1019.6 hPa | 0 mm | - | 789 W/m² | - |
| 1777660549 | 8.89° C | 50% | 1020 hPa | 0 mm | - | 345 W/m² | - |
| 1777660246 | 9.44° C | 48% | 1020 hPa | 0 mm | - | 295 W/m² | - |
| 1777659942 | 8.89° C | 50% | 1020 hPa | 0 mm | - | 727 W/m² | - |
* Rain latest hour (hover to see other rain measurements)
** Current wind speed in m/s (hover to see current wind gust speed)